Regional Weather Roundup
Issued by NWS Northern Indiana

Home | Current Version | Previous Version | Text Only | Print | Product List | Glossary On
Versions: 1 2 3 4 5 6 7 8 9 10 11 12 13 14 15 16 17 18 19 20 21 22 23 24 25 26 27 28 29 30 31 32 33 34 35 36 37 38 39 40 41 42 43 44 45 46 47 48 49 50
000
ASUS43 KIWX 191510
RWRIWX

KIWX WEATHER ROUNDUP
NATIONAL WEATHER SERVICE NORTHERN INDIANA
1100 AM EDT SUN APR 19 2015

NOTE: "FAIR" INDICATES FEW OR NO CLOUDS BELOW 12,000 FEET WITH NO
SIGNIFICANT WEATHER AND/OR OBSTRUCTIONS TO VISIBILITY.

* THESE STATIONS ARE NOT UNDER NWS QUALITY CONTROL. THEY ALSO MAY NOT
  REPORT WEATHER SUCH AS PRECIPITATION OR FOG.

INZ001>027-191600-
NORTHERN INDIANA

CITY           SKY/WX    TMP DP  RH WIND       PRES   REMARKS
GARY*          PTSUNNY   66  28  24 SE10G30   29.78
VALPARAISO     MOSUNNY   66  37  34 E18G26    29.79F
MICHIGAN CITY* MOSUNNY   64  30  27 E10G16    29.79F
KNOX*          MOSUNNY   64   3   9 E21       29.78F
SOUTH BEND     PTSUNNY   64  35  34 E16       29.83F
ELKHART*       PTSUNNY   64  30  27 E16G23    29.84F
GOSHEN         MOSUNNY   61  39  44 E18       29.83F
MONTICELLO*    PTSUNNY   61  42  50 E13       29.76F
LOGANSPORT*    PTSUNNY   59  39  47 E20       29.78F
ROCHESTER*     MOSUNNY   64  37  36 E23       29.80F
WARSAW*        MOSUNNY   61  37  41 E18G24    29.82F
ANGOLA*        SUNNY     57  34  41 E16       29.87F
FORT WAYNE     PTSUNNY   60  38  43 E20       29.84F
HUNTINGTON*    PTSUNNY   59  33  37 E10G21    29.82S
PERU/GRISSOM   PTSUNNY   59  42  52 E18       29.77F
MARION*        CLOUDY    58  40  51 E16G22    29.79F

$$
INZ028>050-191600-
CENTRAL INDIANA

CITY           SKY/WX    TMP DP  RH WIND       PRES   REMARKS
LAFAYETTE      CLOUDY    59  43  55 E15       29.74F
KOKOMO*        CLOUDY    57  41  54 E16G24    29.78F
MUNCIE*        LGT RAIN  60  46  59 E14       29.79F
INDIANAPOLIS   LGT RAIN  58  50  75 E12       29.73F

$$
MIZ043>046-050>051-056>058-064>065-071>073-077>080-191600-
SOUTHWEST LOWER MICHIGAN

CITY           SKY/WX    TMP DP  RH WIND       PRES   REMARKS
BATTLE CREEK   PTSUNNY   59  28  30 E15G23    29.90F
BENTON HARBOR  PTSUNNY   58  33  39 E15       29.83F
COLDWATER*     MOSUNNY   61  30  31 E13G18    29.88F
HILLSDALE*     MOSUNNY   58  29  33 E15G24    29.90F
HOLLAND        MOSUNNY   59  33  37 E17       29.88F
GRAND RAPIDS   PTSUNNY   56  31  38 E21G26    29.92F
KALAMAZOO      PTSUNNY   60  29  30 E14G21    29.89F
STURGIS*       MOSUNNY   63  34  34 E3G20     29.86F
THREE RIVERS*  FAIR      63  32  30 E10G18    29.87F

$$
OHZ001>008-015>018-024>025-191600-
NORTHWEST OHIO

CITY           SKY/WX    TMP DP  RH WIND       PRES   REMARKS
WAUSEON*       FAIR      57  36  44 NE17G25   29.90F
DEFIANCE       MOSUNNY   60  35  39 E15G23    29.87F
FINDLAY        PTSUNNY   59  38  45 NE17      29.86F
TOLEDO EXPRESS MOSUNNY   54  35  48 NE20G26   29.91F
TOLEDO METCALF PTSUNNY   52  35  52 E17G25    29.93F
LIMA           PTSUNNY   68  44  42 E17       29.84F

$$
AND FOR LAKE MICHIGAN COASTAL AND OPEN LAKE BUOY OBSERVATIONS

STATION/POSITION TEMP    WIND        PRES    VSBY  WAVE
                 AIR SEA DIR/SP/G                  HT/PER
                 (F)     (DEG/KT/KT) (MB)    (MI)  (FT/S)
CALUMET HARBOR    53      30/  6/  8   N/A
MICHIGAN CITY     61      90/ 16/ 22   N/A
BURNS HARBOR      63     120/ 17/ 24 1009.1S
SAINT JOSEPH      61      70/  3/ 10 1010.5F
MICHIGAN CITY     56 44  140/ 12/ 17   N/A           3/ 6

$$
&&



USA.gov is the U.S. government's official web portal to all federal, state and local government web resources and services.